Change the Weather History Date:

Friday, November 30, 2012

  Actual Average (KHSV) Record (KHSV)
Temperature  
Mean Temperature 46 °F 48 °F  
Max Temperature 62 °F 58 °F 76 °F (1970)
Min Temperature 30 °F 38 °F 13 °F (1929)
Degree Days  
Heating Degree Days 19 17  
Month to date heating degree days 376  
Since 1 July heating degree days 527  
Cooling Degree Days 0 0  
Month to date cooling degree days 9  
Year to date cooling degree days 1949  
Moisture  
Dew Point 35 °F    
Average Humidity 70    
Maximum Humidity 93    
Minimum Humidity 37    
Precipitation  
Precipitation 0.00 in 0.19 in 3.93 in (2010)
Month to date precipitation 4.94  
Year to date precipitation 48.57  
Snow  
Snow 0.00 in - - ()
Month to date snowfall  
Since 1 July snowfall  
Since 1 September snowfall  
Snow Depth -    
Sea Level Pressure  
Sea Level Pressure 30.29 in    
Wind  
Wind Speed 2 mph (SSW)    
Max Wind Speed 15 mph    
Max Gust Speed 21 mph    
Visibility 10 miles    
Events      
T = Trace of Precipitation, MM = Missing Value Source: NWS Daily Summary

Daily Weather History Graph

Daily Weather History Graph

Search for Another Location

Airport or City:

Trip Planner

Search our weather history database for the weather conditions in past years. The results will help you decide how hot, cold, wet, or windy it might be!

Date:

Astronomy

Nov. 30, 2012 Rise Set
Actual Time 6:35 AM CST 4:34 PM CST
Civil Twilight 6:07 AM CST 5:02 PM CST
Nautical Twilight 5:36 AM CST 5:33 PM CST
Astronomical Twilight 5:05 AM CST 6:04 PM CST
Moon 6:28 PM CST (11/30) 8:06 AM CST (11/30)
Length of Visible Light 10h 55m
Length of Day
9h 59m
Waning Gibbous, 96% of the Moon is Illuminated
Nov 30
Waning Gibbous
Dec 6
Last Quarter
Dec 13
New
Dec 19
First Quarter
Dec 28
Full

Hourly Weather History & Observations

Time (CST) Temp. Windchill Dew Point Humidity Pressure Visibility Wind Dir Wind Speed Gust Speed Precip Events Conditions
12:15 AM 32.0 °F - 28.4 °F 87% 30.33 in 10.0 mi Calm Calm - N/A   Clear
12:35 AM 32.0 °F - 28.4 °F 87% 30.33 in 10.0 mi Calm Calm - N/A   Clear
12:55 AM 32.0 °F - 28.4 °F 87% 30.33 in 10.0 mi Calm Calm - N/A   Clear
1:15 AM 32.0 °F - 28.4 °F 87% 30.33 in 10.0 mi Calm Calm - N/A   Clear
1:35 AM 32.0 °F - 28.4 °F 87% 30.33 in 10.0 mi Calm Calm - N/A   Clear
1:55 AM 32.0 °F - 28.4 °F 87% 30.33 in 10.0 mi Calm Calm - N/A   Clear
2:15 AM 32.0 °F - 28.4 °F 87% 30.33 in 10.0 mi Calm Calm - N/A   Clear
2:35 AM 32.0 °F - 28.4 °F 87% 30.31 in 10.0 mi Calm Calm - N/A   Clear
2:55 AM 32.0 °F - 28.4 °F 87% 30.30 in 10.0 mi Calm Calm - N/A   Clear
3:15 AM 30.2 °F - 28.4 °F 93% 30.31 in 10.0 mi Calm Calm - N/A   Clear
3:35 AM 30.2 °F - 28.4 °F 93% 30.31 in 10.0 mi Calm Calm - N/A   Clear
3:55 AM 32.0 °F - 30.2 °F 93% 30.30 in 10.0 mi Calm Calm - N/A   Mostly Cloudy
4:15 AM 32.0 °F - 28.4 °F 87% 30.30 in 10.0 mi Calm Calm - N/A   Scattered Clouds
4:35 AM 32.0 °F - 30.2 °F 93% 30.31 in 10.0 mi Calm Calm - N/A   Mostly Cloudy
4:55 AM 33.8 °F - 30.2 °F 87% 30.31 in 10.0 mi Calm Calm - N/A   Overcast
5:15 AM 35.6 °F - 32.0 °F 87% 30.32 in 10.0 mi Calm Calm - N/A   Overcast
5:35 AM 37.4 °F - 33.8 °F 87% 30.32 in 10.0 mi Calm Calm - N/A   Overcast
5:55 AM 37.4 °F - 33.8 °F 87% 30.32 in 10.0 mi Calm Calm - N/A   Overcast
6:15 AM 39.2 °F - 33.8 °F 81% 30.33 in 10.0 mi Calm Calm - N/A   Overcast
6:35 AM 39.2 °F - 33.8 °F 81% 30.34 in 10.0 mi Calm Calm - N/A   Overcast
6:55 AM 41.0 °F - 33.8 °F 76% 30.34 in 10.0 mi Calm Calm - N/A   Overcast
7:15 AM 41.0 °F - 35.6 °F 81% 30.34 in 10.0 mi Calm Calm - N/A   Overcast
7:35 AM 42.8 °F - 37.4 °F 81% 30.34 in 10.0 mi Calm Calm - N/A   Overcast
7:55 AM 44.6 °F 43.1 °F 35.6 °F 71% 30.34 in 10.0 mi SE 3.5 mph - N/A   Mostly Cloudy
8:15 AM 46.4 °F 43.5 °F 35.6 °F 66% 30.35 in 10.0 mi SSE 5.8 mph - N/A   Mostly Cloudy
8:35 AM 48.2 °F - 35.6 °F 62% 30.35 in 10.0 mi SE 4.6 mph - N/A   Scattered Clouds
8:55 AM 50.0 °F - 37.4 °F 62% 30.35 in 10.0 mi South 6.9 mph - N/A   Scattered Clouds
9:15 AM 51.8 °F - 41.0 °F 67% 30.35 in 10.0 mi South 8.1 mph - N/A   Clear
9:35 AM 51.8 °F - 41.0 °F 67% 30.35 in 10.0 mi SSW 9.2 mph - N/A   Clear
9:55 AM 53.6 °F - 41.0 °F 62% 30.35 in 10.0 mi SSW 9.2 mph - N/A   Clear
10:15 AM 55.4 °F - 41.0 °F 58% 30.34 in 10.0 mi South 10.4 mph 17.3 mph N/A   Clear
10:35 AM 55.4 °F - 39.2 °F 54% 30.34 in 10.0 mi South 11.5 mph - N/A   Clear
10:55 AM 57.2 °F - 39.2 °F 51% 30.32 in 10.0 mi South 11.5 mph - N/A   Scattered Clouds
11:15 AM 57.2 °F - 39.2 °F 51% 30.31 in 10.0 mi SSW 13.8 mph 17.3 mph N/A   Scattered Clouds
11:35 AM 59.0 °F - 37.4 °F 45% 30.31 in 10.0 mi SW 15.0 mph 20.7 mph N/A   Scattered Clouds
11:55 AM 59.0 °F - 37.4 °F 45% 30.30 in 10.0 mi SSW 8.1 mph - N/A   Clear
12:15 PM 59.0 °F - 39.2 °F 48% 30.29 in 10.0 mi SW 12.7 mph - N/A   Clear
12:35 PM 60.8 °F - 37.4 °F 42% 30.28 in 10.0 mi SSW 9.2 mph - N/A   Clear
12:55 PM 60.8 °F - 37.4 °F 42% 30.26 in 10.0 mi South 11.5 mph - N/A   Clear
1:15 PM 60.8 °F - 37.4 °F 42% 30.26 in 10.0 mi South 13.8 mph 17.3 mph N/A   Clear
1:35 PM 62.6 °F - 35.6 °F 37% 30.25 in 10.0 mi SSW 12.7 mph - N/A   Clear
1:55 PM 60.8 °F - 35.6 °F 39% 30.24 in 10.0 mi SSW 8.1 mph - N/A   Clear
2:15 PM 62.6 °F - 35.6 °F 37% 30.24 in 10.0 mi SSW 9.2 mph - N/A   Clear
2:35 PM 62.6 °F - 35.6 °F 37% 30.23 in 10.0 mi SSW 10.4 mph - N/A   Clear
2:55 PM 62.6 °F - 35.6 °F 37% 30.23 in 10.0 mi SSW 6.9 mph - N/A   Clear
3:15 PM 60.8 °F - 35.6 °F 39% 30.24 in 10.0 mi SSW 6.9 mph - N/A   Clear
3:35 PM 60.8 °F - 35.6 °F 39% 30.24 in 10.0 mi SSW 4.6 mph - N/A   Clear
3:55 PM 62.6 °F - 35.6 °F 37% 30.23 in 10.0 mi South 9.2 mph - N/A   Clear
4:15 PM 60.8 °F - 37.4 °F 42% 30.23 in 10.0 mi South 6.9 mph - N/A   Clear
4:35 PM 59.0 °F - 37.4 °F 45% 30.23 in 10.0 mi South 4.6 mph - N/A   Clear
4:55 PM 55.4 °F - 37.4 °F 51% 30.23 in 10.0 mi Calm Calm - N/A   Clear
5:15 PM 55.4 °F - 37.4 °F 51% 30.24 in 10.0 mi Calm Calm - N/A   Clear
5:35 PM 50.0 °F - 37.4 °F 62% 30.24 in 10.0 mi Calm Calm - N/A   Clear
6:15 PM 48.2 °F - 37.4 °F 66% 30.24 in 10.0 mi Calm Calm - N/A   Clear
6:35 PM 46.4 °F - 37.4 °F 71% 30.25 in 10.0 mi Calm Calm - N/A   Clear
6:55 PM 44.6 °F - 37.4 °F 76% 30.25 in 10.0 mi Calm Calm - N/A   Clear
7:15 PM 42.8 °F - 35.6 °F 76% 30.25 in 10.0 mi Calm Calm - N/A   Clear
7:35 PM 42.8 °F - 37.4 °F 81% 30.25 in 10.0 mi Calm Calm - N/A   Clear
7:55 PM 42.8 °F - 37.4 °F 81% 30.26 in 10.0 mi Calm Calm - N/A   Clear
8:15 PM 42.8 °F - 37.4 °F 81% 30.26 in 10.0 mi Calm Calm - N/A   Clear
8:35 PM 41.0 °F - 35.6 °F 81% 30.27 in 10.0 mi Calm Calm - N/A   Clear
9:15 PM 41.0 °F - 35.6 °F 81% 30.27 in 10.0 mi Calm Calm - N/A   Clear
9:35 PM 39.2 °F - 35.6 °F 87% 30.26 in 10.0 mi Calm Calm - N/A   Clear
9:55 PM 37.4 °F - 35.6 °F 93% 30.27 in 10.0 mi Calm Calm - N/A   Clear
10:15 PM 37.4 °F - 35.6 °F 93% 30.27 in 10.0 mi Calm Calm - N/A   Clear
10:35 PM 37.4 °F - 35.6 °F 93% 30.27 in 10.0 mi Calm Calm - N/A   Clear
10:55 PM 37.4 °F - 35.6 °F 93% 30.27 in 10.0 mi Calm Calm - N/A   Clear
11:15 PM 37.4 °F - 35.6 °F 93% 30.27 in 10.0 mi Calm Calm - N/A   Clear
11:35 PM 37.4 °F - 33.8 °F 87% 30.27 in 10.0 mi Calm Calm - N/A   Clear
11:55 PM 37.4 °F - 33.8 °F 87% 30.27 in 10.0 mi Calm Calm - N/A   Clear